Location: Croissy-Beaubourg
(48.8283°N, 2.6696°E)
Time: 01:58:13
(UTC+00:00)

USA 215 - Pass Details

Date: 03 June 2022
Orbit: 1099 x 1108 km, 123.0° (Epoch: 10 June)

Event Time Altitude Azimuth Distance (km) Brightness Sun altitude
Rises 23:02:27 0° 58° (ENE) 3,926 6.4 -18.1°
Reaches altitude 10° 23:05:16 10° 68° (ENE) 2,967 5.7 -18.1°
Maximum altitude 23:11:01 32° 129° (SE) 1,801 4.0 -18.3°
Enters shadow 23:12:51 28° 158° (SSE) 1,952 4.0 -18.3°
